Wind_Speed
24 22 20 18 17 16 16 16 15 13 12 11 11 10 10 10 10 11 12 11 11 10 10 10 10 10 10 10 10 11 11 12 12 11 11 11 9 9 9 9 10 10
25 23 22 20 19 17 17 16 15 14 13 11 11 10 9 9 10 10 11 11 11 10 10 9 9 9 9 9 9 10 11 12 12 12 12 11 10 10 10 11 11 11
25 24 22 21 20 18 17 16 16 15 13 12 11 10 10 10 10 10 10 11 11 10 10 10 9 9 9 9 10 10 11 12 11 12 12 12 11 11 11 11 11 11
25 24 22 22 21 19 18 18 17 16 14 14 13 12 11 11 11 10 11 12 12 11 12 12 11 11 10 10 11 12 12 12 12 12 12 12 12 11 11 12 12 12
26 24 23 23 22 21 20 19 19 17 15 14 13 13 13 12 12 11 12 12 13 13 13 14 14 13 12 12 12 13 13 13 13 12 13 12 12 12 12 12 12 12
27 26 25 24 23 23 22 20 19 18 17 15 14 14 14 13 13 13 12 13 14 14 15 15 15 15 14 13 13 14 14 14 14 13 13 13 12 12 12 12 12 12
28 28 27 25 24 24 23 22 21 19 18 16 16 15 15 14 14 14 14 15 15 15 16 16 16 15 15 14 14 14 15 15 16 15 15 14 12 11 11 11 12 12
26 27 28 27 26 25 25 24 23 21 19 18 18 17 16 16 16 16 17 16 16 15 15 15 15 15 15 16 16 15 15 16 16 16 16 15 14 13 11 11 12 12
25 26 27 29 28 27 26 24 24 23 21 20 20 19 18 18 18 19 18 18 17 16 16 15 15 16 16 17 17 17 16 16 16 16 17 16 15 13 11 10 11 11
25 26 26 28 29 29 27 25 24 23 22 22 21 21 20 20 20 20 19 18 18 17 16 16 17 17 17 17 18 18 18 17 16 16 16 16 15 13 11 10 11 11
25 26 27 28 29 29 28 26 25 24 23 23 23 23 23 22 22 21 20 19 18 17 16 17 17 18 18 18 18 18 18 17 16 16 16 16 15 14 12 12 12 10
26 27 28 29 29 29 29 28 26 25 24 24 24 25 25 25 24 22 21 20 19 17 17 17 17 18 18 18 17 17 16 15 15 15 16 16 15 14 13 13 12 10
27 26 27 29 30 30 29 28 28 27 26 26 25 25 26 26 24 22 21 20 19 18 18 17 18 18 18 17 16 15 15 15 15 15 16 17 17 15 14 13 13 11
28 26 26 26 28 30 29 29 28 28 28 27 26 26 26 27 25 22 21 20 19 18 18 18 18 17 17 16 15 15 15 15 16 16 16 17 18 16 14 14 14 13
30 28 26 26 27 29 30 29 28 28 28 28 27 27 27 27 26 24 22 21 20 18 18 18 18 17 16 15 14 14 14 14 15 15 15 16 16 16 16 15 12 12
33 32 30 28 27 27 29 30 29 28 27 28 28 27 27 27 27 25 23 21 20 19 19 18 17 16 16 15 14 14 14 14 13 13 14 15 15 16 16 13 11 11
36 35 33 31 28 27 28 29 29 28 27 28 27 26 26 26 26 26 24 21 20 19 19 19 19 18 17 16 15 14 14 14 13 13 15 16 15 15 15 14 12 13
36 36 36 34 31 28 27 27 28 28 28 27 26 24 23 23 24 25 23 21 20 20 20 20 20 19 18 16 14 13 14 14 14 15 16 16 16 16 15 15 16 15
35 36 37 35 32 30 28 26 27 28 27 27 26 23 20 20 21 22 22 21 21 21 21 21 20 19 18 16 15 14 14 14 15 16 16 16 17 16 16 16 17 18
35 36 37 35 33 30 28 26 27 27 26 26 24 21 21 21 21 22 22 23 22 21 21 20 19 18 17 16 15 15 15 15 15 16 16 17 18 18 17 16 17 19
36 35 35 35 34 32 28 26 26 25 24 25 24 23 22 22 23 24 25 24 22 21 21 21 20 19 18 17 16 16 16 16 16 17 17 17 19 20 19 18 18 20
36 35 35 36 37 34 30 27 27 25 24 25 26 25 24 24 25 26 26 24 23 23 24 23 22 21 20 19 18 18 18 18 17 18 19 20 20 20 21 21 20 21
36 36 36 37 37 35 31 29 29 28 27 27 27 27 26 27 28 27 26 25 25 26 25 24 23 22 21 21 20 20 20 20 20 21 21 22 22 23 23 23 23 23
34 35 36 36 36 34 32 30 30 31 31 31 30 30 30 30 28 28 29 27 26 26 25 24 24 24 23 23 22 22 22 22 22 23 23 23 22 22 22 22 21 21
34 34 35 35 34 33 32 32 32 33 33 34 33 33 32 31 28 27 28 25 23 24 25 24 24 23 22 23 24 25 25 24 24 24 23 22 20 20 20 18 16 15
34 35 35 36 33 30 30 32 34 35 33 31 32 32 30 27 25 25 24 22 20 23 24 22 21 21 22 24 25 25 25 22 20 20 20 21 20 18 16 14 14 16
Wind_Direction
227 228 230 233 233 231 232 232 230 229 229 229 232 237 237 234 232 231 232 234 236 239 240 243 248 251 254 253 253 254 255 257 260 266 271 269 269 277 286 286 281 280
226 228 232 235 234 231 231 232 233 233 232 234 238 239 234 231 230 229 232 234 236 239 241 242 243 246 250 252 253 256 258 261 262 264 266 265 268 275 282 283 280 280
227 229 232 235 235 234 234 235 236 235 236 239 240 237 232 230 232 233 234 234 235 241 242 238 236 239 244 247 251 255 258 260 259 260 262 266 272 276 278 279 278 279
230 230 233 236 237 237 238 240 239 237 237 238 238 237 235 234 236 236 235 234 236 241 240 234 233 236 240 243 248 251 253 256 258 260 263 267 271 274 275 277 278 280
231 232 234 236 238 239 240 242 242 240 239 240 239 240 239 237 237 235 234 235 237 240 238 233 235 239 241 245 249 251 253 255 257 260 263 264 267 271 274 277 282 284
232 233 234 236 239 240 241 243 244 242 241 241 242 242 240 238 237 235 234 235 235 236 235 233 236 240 244 250 254 258 260 260 260 260 260 262 265 268 272 276 280 281
234 235 235 236 239 241 242 243 244 243 242 243 244 242 240 240 240 239 237 237 237 238 238 238 240 243 248 254 257 261 265 266 265 262 260 261 262 262 266 270 271 273
236 237 236 237 238 241 242 242 243 244 243 244 243 241 240 241 242 242 242 243 245 247 248 248 249 250 252 254 256 260 264 264 262 260 258 259 258 258 258 263 266 266
236 237 238 238 238 240 243 242 243 244 245 245 243 240 240 242 243 244 244 247 250 253 256 257 257 257 256 257 260 263 266 264 259 257 255 253 253 253 251 258 266 269
236 237 237 238 238 239 243 244 243 244 246 247 245 242 241 242 244 245 246 248 250 252 256 258 258 258 259 262 263 263 265 264 259 254 251 247 247 249 249 256 265 271
239 238 236 237 238 240 243 245 245 244 244 246 247 245 244 244 245 245 244 244 245 249 256 260 260 261 263 265 265 264 266 264 257 251 248 246 246 250 255 259 262 268
244 242 238 235 237 240 243 245 246 244 243 244 247 248 247 247 245 242 241 241 243 249 258 262 263 266 268 269 268 266 265 262 257 255 255 253 251 255 261 264 261 262
245 245 242 237 236 238 241 244 246 246 245 244 246 249 250 248 243 239 239 242 246 252 258 264 268 272 273 273 271 268 263 260 259 263 264 260 256 257 262 263 259 256
245 246 246 243 240 238 240 242 244 246 247 246 246 248 249 246 240 238 242 247 252 256 259 266 273 275 275 276 276 271 268 267 266 268 267 263 260 260 260 257 253 251
245 245 247 247 245 242 240 241 243 245 246 247 246 246 247 245 239 239 243 249 254 258 263 269 274 276 279 281 280 277 276 276 273 270 268 264 261 258 255 252 251 252
246 246 247 248 247 246 243 241 241 243 244 245 245 244 244 243 240 241 244 247 252 258 263 268 272 276 282 284 283 281 279 279 279 274 267 263 259 259 262 267 269 266
246 247 248 248 247 248 247 244 242 242 244 244 243 242 241 241 241 242 244 247 252 257 263 269 270 273 277 278 278 279 278 278 279 271 263 263 264 263 265 268 267 262
246 247 249 249 248 248 248 247 244 243 243 243 240 237 238 240 241 242 245 249 254 260 264 266 267 268 271 270 267 270 273 272 272 268 265 264 262 259 259 262 260 255
245 247 249 249 248 248 250 250 246 241 239 236 233 231 235 241 243 244 246 250 255 260 261 259 261 265 267 265 263 265 268 269 271 272 272 271 267 264 265 266 261 252
244 246 248 250 248 246 249 249 242 236 233 229 227 230 236 241 242 242 243 246 251 254 253 251 254 258 261 262 263 264 266 269 273 274 274 274 272 269 268 269 265 256
242 243 246 249 247 245 247 244 234 230 229 227 228 233 237 238 239 240 242 245 249 250 248 248 251 256 261 264 265 265 266 270 273 273 273 272 271 271 272 271 266 260
242 242 243 245 244 242 243 239 230 228 230 230 231 234 237 239 240 242 245 247 248 248 246 247 251 255 260 262 261 262 263 265 267 268 269 268 267 268 267 264 261 259
240 240 240 242 242 241 242 240 233 232 232 232 233 234 237 240 242 245 248 249 247 246 245 247 252 256 258 260 259 258 260 262 263 263 263 263 262 262 263 263 260 251
239 240 242 242 239 238 240 240 237 236 236 234 234 236 238 239 242 246 248 245 242 244 247 251 256 258 260 261 261 261 262 261 260 260 259 259 260 259 260 260 250 233
238 239 241 241 239 236 237 239 238 240 240 238 236 238 239 238 240 245 245 237 234 244 251 255 258 260 261 262 263 262 261 259 259 261 260 256 252 248 244 240 225 204
235 236 236 236 235 233 234 238 241 243 244 243 241 239 237 235 236 240 241 237 237 246 253 256 258 259 260 262 263 262 261 260 260 258 252 241 229 216 203 183 163 150
Height
1565 1566 1567 1569 1570 1571 1572 1573 1574 1574 1575 1576 1576 1577 1578 1578 1579 1580 1580 1580 1581 1581 1582 1582 1582 1583 1583 1583 1584 1584 1585 1585 1585 1585 1585 1585 1585 1585 1585 1585 1585 1584
1563 1565 1566 1567 1568 1570 1571 1572 1573 1573 1574 1575 1576 1576 1577 1578 1578 1578 1579 1579 1580 1580 1580 1581 1581 1581 1582 1582 1583 1583 1583 1584 1584 1584 1584 1584 1584 1583 1583 1583 1583 1583
1562 1563 1564 1566 1567 1568 1570 1571 1572 1572 1573 1574 1575 1576 1576 1577 1577 1577 1578 1578 1579 1579 1579 1580 1580 1580 1581 1581 1581 1581 1581 1582 1582 1582 1582 1582 1582 1582 1582 1582 1582 1581
1560 1562 1563 1564 1566 1567 1568 1569 1570 1571 1572 1573 1574 1575 1575 1576 1576 1576 1577 1577 1577 1578 1578 1578 1579 1579 1579 1579 1579 1579 1579 1580 1580 1580 1580 1580 1580 1580 1580 1580 1580 1580
1559 1560 1561 1563 1564 1566 1567 1568 1569 1570 1571 1572 1573 1574 1574 1574 1575 1575 1575 1576 1576 1576 1576 1577 1577 1577 1577 1577 1577 1577 1578 1578 1578 1578 1578 1578 1579 1579 1579 1579 1579 1579
1557 1559 1560 1561 1563 1564 1565 1566 1568 1569 1570 1571 1572 1572 1573 1573 1573 1573 1574 1574 1574 1574 1574 1575 1575 1575 1576 1576 1576 1577 1577 1577 1577 1577 1577 1577 1577 1577 1577 1578 1578 1578
1555 1556 1558 1560 1561 1562 1564 1565 1566 1567 1568 1570 1570 1571 1571 1571 1571 1572 1571 1572 1572 1572 1572 1573 1573 1574 1575 1575 1575 1575 1575 1575 1576 1575 1575 1575 1575 1576 1576 1576 1576 1577
1552 1554 1556 1558 1559 1560 1562 1563 1564 1566 1567 1568 1568 1569 1569 1570 1570 1570 1569 1570 1570 1571 1571 1572 1572 1573 1573 1573 1573 1573 1573 1574 1574 1574 1574 1574 1574 1574 1574 1575 1575 1575
1550 1552 1553 1555 1557 1558 1559 1561 1562 1564 1565 1566 1566 1567 1568 1568 1567 1568 1568 1569 1569 1570 1570 1570 1571 1571 1571 1571 1571 1571 1571 1572 1572 1572 1572 1572 1573 1573 1573 1573 1574 1574
1547 1549 1551 1552 1554 1555 1557 1559 1560 1562 1563 1564 1564 1565 1565 1565 1565 1566 1567 1567 1568 1568 1568 1568 1569 1569 1569 1569 1569 1569 1570 1570 1570 1570 1571 1571 1571 1572 1572 1572 1572 1573
1545 1547 1548 1549 1551 1553 1554 1556 1558 1559 1560 1561 1562 1563 1563 1563 1563 1564 1565 1565 1565 1566 1566 1567 1567 1567 1567 1567 1567 1567 1568 1568 1569 1569 1570 1570 1570 1571 1571 1571 1571 1572
1542 1544 1545 1547 1549 1550 1552 1554 1555 1556 1558 1559 1560 1560 1561 1561 1561 1562 1563 1563 1564 1564 1565 1565 1565 1566 1566 1566 1566 1566 1566 1567 1567 1568 1568 1569 1569 1569 1570 1570 1570 1570
1540 1541 1543 1544 1546 1547 1549 1551 1552 1554 1555 1556 1557 1558 1558 1558 1559 1560 1561 1561 1562 1563 1563 1564 1564 1564 1564 1564 1565 1565 1565 1565 1566 1566 1567 1567 1567 1568 1568 1568 1569 1569
1538 1539 1540 1542 1543 1545 1547 1548 1550 1551 1552 1553 1555 1556 1556 1556 1557 1558 1559 1560 1561 1561 1562 1562 1562 1563 1563 1563 1563 1564 1564 1564 1564 1564 1565 1565 1566 1566 1566 1566 1566 1567
1535 1537 1538 1539 1541 1542 1544 1546 1547 1548 1550 1551 1552 1553 1554 1554 1556 1557 1557 1558 1559 1559 1560 1561 1561 1561 1562 1562 1562 1562 1563 1563 1563 1563 1563 1564 1565 1564 1563 1563 1564 1565
1532 1534 1536 1537 1538 1540 1541 1543 1545 1546 1547 1548 1549 1551 1552 1552 1554 1555 1555 1556 1557 1558 1558 1559 1559 1560 1560 1561 1561 1561 1561 1561 1561 1562 1562 1562 1563 1562 1563 1564 1564 1565
1529 1530 1533 1535 1536 1538 1539 1541 1543 1544 1545 1546 1547 1549 1549 1550 1552 1553 1553 1554 1555 1556 1557 1557 1558 1558 1558 1559 1559 1559 1559 1559 1559 1560 1559 1560 1561 1562 1564 1564 1564 1563
1525 1527 1529 1532 1534 1536 1537 1539 1541 1542 1543 1544 1545 1546 1547 1548 1549 1550 1551 1553 1554 1554 1555 1555 1555 1556 1556 1557 1557 1557 1557 1557 1557 1557 1557 1558 1559 1560 1562 1562 1561 1561
1522 1524 1526 1529 1531 1533 1535 1537 1538 1540 1541 1542 1543 1544 1546 1546 1548 1549 1550 1551 1552 1552 1553 1553 1553 1554 1554 1555 1555 1555 1555 1555 1555 1555 1556 1557 1557 1558 1559 1559 1558 1559
1519 1521 1523 1526 1529 1531 1533 1534 1536 1537 1538 1540 1541 1543 1544 1545 1546 1547 1548 1548 1549 1550 1550 1551 1551 1551 1552 1553 1553 1553 1553 1553 1554 1554 1554 1555 1556 1556 1557 1557 1556 1556
1515 1517 1520 1523 1526 1528 1530 1532 1533 1535 1536 1538 1539 1541 1542 1542 1543 1544 1545 1546 1547 1548 1548 1548 1549 1549 1550 1551 1551 1551 1551 1552 1552 1552 1552 1553 1553 1553 1554 1554 1554 1554
1511 1514 1516 1518 1520 1523 1526 1529 1531 1533 1534 1535 1537 1538 1539 1540 1541 1541 1543 1545 1545 1546 1546 1546 1547 1547 1548 1549 1549 1549 1549 1549 1550 1550 1550 1550 1550 1550 1550 1551 1551 1551
1507 1509 1511 1513 1516 1520 1524 1526 1528 1530 1531 1533 1534 1535 1536 1537 1538 1540 1541 1542 1543 1543 1543 1544 1545 1546 1546 1546 1547 1547 1546 1547 1547 1547 1547 1547 1546 1546 1547 1547 1548 1548
1503 1505 1507 1510 1514 1517 1521 1523 1524 1526 1528 1529 1530 1531 1532 1534 1536 1538 1538 1539 1540 1541 1542 1543 1543 1544 1544 1544 1544 1544 1544 1544 1544 1544 1543 1543 1543 1543 1543 1544 1545 1546
1499 1501 1504 1507 1510 1514 1517 1520 1521 1522 1523 1524 1525 1527 1529 1531 1534 1535 1535 1537 1540 1540 1540 1541 1541 1541 1542 1542 1541 1541 1541 1540 1541 1540 1541 1541 1541 1541 1541 1541 1543 1545
1494 1497 1499 1501 1505 1509 1512 1515 1518 1519 1520 1521 1523 1525 1527 1530 1532 1532 1533 1536 1538 1538 1538 1538 1539 1539 1539 1538 1537 1537 1537 1537 1538 1538 1538 1538 1538 1538 1539 1541 1543 1545